Regional Weather Roundup
Issued by NWS

Home | Current Version | Previous Version | Graphics & Text | Print | Product List | Glossary On
Versions: 1 2 3 4 5 6 7 8 9 10 11 12 13 14 15 16 17 18 19 20 21 22 23 24 25 26 27 28 29 30 31 32 33 34 35 36 37 38 39 40 41 42 43 44 45 46 47 48 49 50
000
ASUS43 KFSD 260310
RWRSD

WEATHER ROUNDUP FOR SOUTH DAKOTA
NATIONAL WEATHER SERVICE SIOUX FALLS SD
900 PM CST SUN JAN 25 2015

NOTE: "FAIR" INDICATES FEW OR NO CLOUDS BELOW 12,000 FEET WITH NO
SIGNIFICANT WEATHER AND/OR OBSTRUCTIONS TO VISIBILITY.


SDZ001>005-009-010-012>017-260400-
NORTHWEST AND NORTH CENTRAL SOUTH DAKOTA

CITY           SKY/WX    TMP DP  RH WIND       PRES   REMARKS
BUFFALO          N/A     41  34  76 W13       29.86R
FAITH            N/A     40  25  55 SW12      29.89F
MOBRIDGE       MOCLDY    35  30  82 SE9       29.85F WCI  28
$$

SDZ012>016-024>037-041>051-057-063-072>074-260400-
SOUTHWEST AND SOUTH CENTRAL SOUTH DAKOTA

CITY           SKY/WX    TMP DP  RH WIND       PRES   REMARKS
RAPID CTY ARPT CLEAR     34  22  61 W6        29.95F WCI  29
PIERRE         MOCLDY    34  28  79 CALM      29.92F
CUSTER         CLEAR     43  29  57 W8        30.03R
ELLSWORTH AFB  CLEAR     33  23  67 W8        29.94F WCI  26
PHILIP         CLEAR     33  23  66 W9        29.92F WCI  25
PINE RIDGE     CLEAR     42  32  67 W10       30.01S
SPEARFISH      FAIR      50  32  50 W16G28    30.01R
WINNER         MOCLDY    38  29  70 S6        29.96F
$$

SDZ004>011-016>023-039-040-260400-
NORTHEAST SOUTH DAKOTA

CITY           SKY/WX    TMP DP  RH WIND       PRES   REMARKS
ABERDEEN       CLOUDY    32  29  88 S8        29.94F WCI  25
WATERTOWN      CLOUDY    30  28  92 S8        29.95F WCI  22
SISSETON         N/A     26  24  92 S7        29.94F WCI  18
$$

SDZ017-020-022-023-036>040-048>070-260400-
SOUTHEAST SOUTH DAKOTA

CITY           SKY/WX    TMP DP  RH WIND       PRES   REMARKS
SIOUX FALLS    CLOUDY    32  30  92 CALM      30.01F
HURON          PTCLDY    32  30  92 S7        29.96F WCI  26
CHAMBERLAIN    CLOUDY    32  30  92 S5        29.96F WCI  28
MITCHELL       CLEAR     34  31  88 S6        29.99F WCI  29
YANKTON        CLOUDY    34  30  86 CALM      30.04F
$$

ABBREVIATIONS USED IN REMARKS
   TC - TEMPERATURE IN CELSIUS
  WCI - WIND CHILL INDEX
   HX - HEAT INDEX
  VSB - VISIBILITY




USA.gov is the U.S. government's official web portal to all federal, state and local government web resources and services.